1505772000.69,21090,14.25,73700.0,-3.35,-8.89,-8.51,0,*5A
1505772001.9,21091,14.25,73702.0,-3.35,-8.85,-8.37,0,*57
1505772003.1,21092,14.25,73700.8,-3.35,-8.75,-8.33,0,*5F
1505772004.3,21093,14.25,73702.0,-3.35,-8.71,-8.17,0,*5C
1505772005.56,21094,14.19,73700.8,-3.35,-8.51,-8.07,0,*58
1505772006.82,21095,14.19,73696.8,-3.35,-8.51,-7.91,0,*59
1505772008.01,21096,14.25,73702.8,-3.35,-8.33,-7.83,0,*5D
1505772009.24,21097,14.25,73702.8,-3.35,-8.29,-7.65,0,*5F
1505772010.49,21098,14.25,73700.8,-3.35,-7.91,-7.27,0,*5A
1505772011.71,21099,14.19,73698.3,-3.37,-7.53,-7.15,0,*56
1505772012.97,21100,14.19,73702.8,-3.37,-7.27,-6.81,0,*58
1505772014.22,21101,14.19,73702.5,-3.37,-7.01,-6.51,0,*50
1505772015.45,21102,14.25,73700.5,-3.37,-6.89,-6.51,0,*52
1505772016.65,21103,14.19,73700.8,-3.35,-6.59,-6.31,0,*5A
1505772017.88,21104,14.25,73702.3,-3.35,-6.47,-6.19,0,*58
1505772019.11,21105,14.25,73700.3,-3.35,-6.55,-6.19,0,*5A
1505772020.33,21106,14.25,73702.8,-3.35,-6.59,-6.23,0,*5C
1505772021.56,21107,14.25,73700.8,-3.35,-6.47,-6.19,0,*5B
1505772022.81,21108,14.25,73700.0,-3.33,-6.55,-6.19,0,*51
1505772024.03,21109,14.25,73700.8,-3.33,-6.69,-6.09,0,*5E
1505772025.26,21110,14.19,73700.5,-3.33,-6.59,-6.09,0,*55
1505772026.48,21111,14.25,73702.8,-3.33,-6.47,-5.97,0,*5F
1505772027.73,21112,14.19,73700.8,-3.33,-6.09,-5.77,0,*58
1505772028.98,21113,14.25,73702.0,-3.33,-5.77,-5.39,0,*59
1505772030.26,21114,14.25,73704.0,-3.33,-5.65,-5.27,0,*52
1505772031.54,21115,14.19,73698.5,-3.33,-5.65,-5.15,0,*52
1505772032.82,21116,14.25,73700.0,-3.33,-5.69,-5.15,0,*5D
1505772034.1,21117,14.19,73698.0,-3.33,-5.81,-5.31,0,*5C
1505772035.39,21118,14.25,73700.3,-3.33,-5.81,-5.27,0,*54
1505772036.67,21119,14.25,73700.8,-3.29,-5.77,-5.23,0,*53
1505772037.94,21120,14.25,73702.5,-3.29,-5.81,-5.15,0,*55
1505772039.22,21121,14.19,73696.8,-3.29,-5.81,-5.23,0,*51
1505772040.45,21122,14.25,73700.8,-3.27,-6.13,-5.27,0,*50
1505772041.7,21123,14.19,73696.3,-3.29,-6.27,-5.51,0,*59
1505772042.95,21124,14.19,73696.3,-3.29,-6.55,-5.65,0,*5C
1505772044.16,21125,14.25,73700.3,-3.27,-6.97,-6.05,0,*58
1505772045.38,21126,14.25,73702.0,-3.27,-6.97,-6.13,0,*5C
1505772046.61,21127,14.25,73702.5,-3.27,-7.11,-6.27,0,*55
1505772047.86,21128,14.19,73698.8,-3.25,-7.73,-6.89,0,*58
1505772049.08,21129,14.19,73698.3,-3.25,-7.83,-7.15,0,*52
1505772050.3,21130,14.25,73700.5,-3.27,-7.87,-7.35,0,*5E
1505772051.55,21131,14.25,73700.0,-3.29,-6.97,-6.85,0,*5B
1505772052.75,21132,14.19,73700.0,-3.27,-6.73,-6.55,0,*51
1505772053.99,21133,14.25,73702.8,-3.27,-6.97,-6.93,0,*50
1505772055.19,21134,14.25,73702.0,-3.27,-6.51,-6.43,0,*50
1505772056.41,21135,14.19,73696.0,-3.27,-6.19,-6.05,0,*5F
1505772057.63,21136,14.25,73702.0,-3.27,-6.05,-5.81,0,*5E
1505772058.88,21137,14.25,73700.5,-3.27,-6.27,-5.89,0,*57
1505772060.09,21138,14.25,73702.3,-3.25,-6.47,-6.01,0,*5F
1505772061.34,21139,14.19,73700.8,-3.25,-7.01,-6.39,0,*56
1505772062.56,21140,14.25,73702.0,-3.23,-7.77,-6.89,0,*54
1505772063.81,21141,14.25,73702.0,-3.25,-8.25,-7.57,0,*59
1505772065.05,21142,14.19,73696.3,-3.25,-8.67,-7.99,0,*5E
1505772066.31,21143,14.19,73698.8,-3.25,-8.63,-8.07,0,*53
1505772067.53,21144,14.19,73696.8,-3.25,-8.41,-7.83,0,*57
1505772068.81,21145,14.19,73698.0,-3.25,-8.11,-7.69,0,*57
1505772070.08,21146,14.25,73702.5,-3.25,-7.99,-7.43,0,*53
1505772071.33,21147,14.25,73702.3,-3.25,-8.07,-7.49,0,*50
1505772072.58,21148,14.25,73700.8,-3.25,-8.29,-7.73,0,*5A
1505772073.82,21149,14.19,73698.5,-3.25,-8.25,-7.69,0,*5C
1505772075.05,21150,14.19,73696.5,-3.25,-8.29,-7.87,0,*58
1505772076.32,21151,14.19,73698.3,-3.25,-8.51,-7.99,0,*59
1505772077.55,21152,14.25,73700.8,-3.25,-8.37,-7.83,0,*51
1505772078.82,21153,14.19,73696.0,-3.25,-8.51,-7.95,0,*57
1505772080.07,21154,14.25,73700.8,-3.25,-8.51,-7.83,0,*57
1505772081.32,21155,14.19,73696.3,-3.25,-8.25,-7.61,0,*59
1505772082.57,21156,14.25,73698.3,-3.25,-8.37,-7.73,0,*5A
1505772083.8,21157,14.19,73700.8,-3.27,-8.25,-7.73,0,*5A
1505772085.02,21158,14.19,73698.3,-3.27,-8.17,-7.77,0,*50
1505772086.3,21159,14.19,73694.0,-3.25,-8.07,-7.61,0,*55
1505772087.51,21160,14.19,73698.0,-3.27,-7.99,-7.53,0,*54
1505772088.73,21161,14.19,73698.5,-3.27,-7.99,-7.49,0,*5E
1505772089.98,21162,14.25,73700.0,-3.27,-7.77,-7.35,0,*56
1505772091.2,21163,14.25,73700.3,-3.27,-7.87,-7.43,0,*59
1505772092.45,21164,14.19,73698.8,-3.27,-7.99,-7.43,0,*51
1505772093.67,21165,14.19,73700.5,-3.27,-8.17,-7.61,0,*59
1505772094.92,21166,14.19,73702.0,-3.27,-8.03,-7.43,0,*5F
1505772096.16,21167,14.19,73696.8,-3.27,-7.91,-7.31,0,*5F
1505772097.39,21168,14.19,73698.3,-3.27,-7.65,-7.11,0,*59
1505772098.62,21169,14.19,73698.5,-3.27,-7.61,-7.05,0,*59
1505772099.85,21170,14.19,73698.8,-3.29,-7.53,-7.11,0,*5B
1505772101.04,21171,14.19,73702.3,-3.27,-7.53,-6.85,0,*58
1505772102.26,21172,14.19,73698.3,-3.27,-7.53,-6.97,0,*58
1505772103.48,21173,14.19,73698.8,-3.27,-7.43,-6.73,0,*52
1505772104.7,21174,14.19,73698.0,-3.27,-7.31,-6.55,0,*54
1505772105.9,21175,14.19,73700.5,-3.27,-7.19,-6.51,0,*5B
1505772107.1,21176,14.19,73698.3,-3.27,-7.19,-6.43,0,*5B
1505772108.29,21177,14.25,73702.8,-3.27,-6.85,-6.39,0,*53
1505772109.49,21178,14.19,73696.8,-3.27,-6.55,-6.13,0,*59
1505772110.71,21179,14.19,73702.5,-3.27,-6.39,-5.93,0,*59
1505772111.95,21180,14.19,73696.3,-3.27,-6.19,-5.73,0,*53
1505772113.19,21181,14.25,73702.0,-3.25,-5.73,-5.43,0,*5C
1505772114.45,21182,14.25,73702.8,-3.25,-5.55,-5.31,0,*5E
1505772115.72,21183,14.25,73702.0,-3.25,-5.19,-4.89,0,*55
1505772116.99,21184,14.25,73702.0,-3.25,-4.93,-4.69,0,*5F
1505772118.18,21185,14.19,73700.0,-3.23,-4.65,-4.41,0,*5B
1505772119.4,21186,14.19,73700.3,-3.25,-4.65,-4.41,0,*5E
1505772120.62,21187,14.19,73696.0,-3.25,-4.53,-4.29,0,*54
1505772121.84,21188,14.19,73698.3,-3.21,-4.41,-4.17,0,*51
1505772123.06,21189,14.19,73698.3,-3.21,-4.37,-4.13,0,*55
1505772124.26,21190,14.19,73698.3,-3.23,-4.29,-4.05,0,*57
1505772125.51,21191,14.19,73698.5,-3.21,-4.17,-4.01,0,*5D
1505772126.7,21192,14.19,73696.3,-3.19,-4.13,-3.95,0,*5B
1505772127.9,21193,14.19,73698.3,-3.19,-4.13,-3.91,0,*5E
1505772129.1,21194,14.25,73696.8,-3.19,-4.13,-3.91,0,*59
1505772130.29,21195,14.25,73700.8,-3.19,-4.13,-3.95,0,*5C
1505772131.52,21196,14.19,73696.8,-3.21,-4.05,-3.87,0,*50
1505772132.72,21197,14.19,73698.0,-3.19,-3.95,-3.79,0,*55
1505772133.93,21198,14.19,73696.5,-3.19,-3.95,-3.79,0,*5A
1505772135.15,21199,14.19,73696.0,-3.19,-3.95,-3.71,0,*53
1505772136.37,21200,14.25,73698.5,-3.19,-3.91,-3.67,0,*53
1505772137.59,21201,14.19,73698.0,-3.19,-3.95,-3.71,0,*51
1505772138.84,21202,14.25,73700.0,-3.17,-3.91,-3.67,0,*5F
1505772140.08,21203,14.25,73698.0,-3.17,-3.95,-3.67,0,*5A
1505772141.32,21204,14.19,73698.3,-3.13,-3.87,-3.63,0,*5E
1505772142.57,21205,14.19,73696.3,-3.17,-3.95,-3.67,0,*5C
1505772143.82,21206,14.19,73698.8,-3.13,-3.75,-3.51,0,*50
1505772145.04,21207,14.19,73696.3,-3.11,-3.79,-3.55,0,*5B
1505772146.27,21208,14.19,73696.5,-3.11,-3.75,-3.51,0,*5C
1505772147.52,21209,14.19,73698.8,-3.09,-3.75,-3.51,0,*54
1505772148.79,21210,14.19,73698.0,-3.09,-3.71,-3.51,0,*58
1505772150.01,21211,14.19,73696.3,-3.11,-3.75,-3.51,0,*54
1505772151.26,21212,14.19,73698.8,-3.09,-3.71,-3.39,0,*54
1505772152.53,21213,14.19,73696.0,-3.09,-3.71,-3.47,0,*5C
1505772153.79,21214,14.19,73692.3,-3.09,-3.71,-3.47,0,*5B
1505772155.05,21215,14.19,73692.5,-3.05,-3.67,-3.43,0,*55
1505772156.28,21216,14.19,73696.8,-3.07,-3.75,-3.51,0,*54
1505772157.52,21217,14.19,73696.0,-3.07,-3.71,-3.47,0,*56
1505772158.75,21218,14.19,73696.0,-3.07,-3.59,-3.39,0,*5A
1505772159.99,21219,14.19,73698.0,-3.05,-3.47,-3.31,0,*5E
1505772161.23,21220,14.19,73698.0,-3.05,-3.43,-3.35,0,*54
1505772162.48,21221,14.19,73696.5,-3.05,-3.47,-3.35,0,*51
1505772163.72,21222,14.19,73694.3,-3.05,-3.43,-3.31,0,*52
1505772164.94,21223,14.25,73696.3,-3.05,-3.35,-3.31,0,*52
1505772166.18,21224,14.25,73696.0,-3.05,-3.43,-3.31,0,*54
1505772167.42,21225,14.19,73696.5,-3.05,-3.43,-3.35,0,*51
1505772168.64,21226,14.19,73694.5,-3.03,-3.43,-3.31,0,*50
1505772169.86,21227,14.19,73692.3,-3.03,-3.51,-3.39,0,*5A
1505772171.09,21228,14.19,73694.5,-3.03,-3.51,-3.39,0,*55
1505772172.29,21229,14.19,73694.5,-3.03,-3.39,-3.31,0,*52
1505772173.56,21230,14.19,73694.8,-3.01,-3.55,-3.43,0,*57
1505772174.83,21231,14.19,73698.0,-3.01,-3.55,-3.43,0,*56
1505772176.1,21232,14.19,73694.3,-3.01,-3.67,-3.43,0,*54
1505772177.36,21233,14.19,73694.8,-3.01,-3.63,-3.55,0,*56
1505772178.63,21234,14.19,73694.3,-3.01,-3.67,-3.51,0,*51
1505772179.9,21235,14.19,73692.5,-3.01,-3.67,-3.51,0,*50
1505772181.16,21236,14.19,73696.0,-3.01,-3.75,-3.51,0,*50
1505772182.38,21237,14.19,73694.5,-2.99,-3.75,-3.47,0,*56
1505772183.61,21238,14.25,73694.8,-2.97,-3.75,-3.39,0,*5E
1505772184.87,21239,14.19,73692.5,-2.97,-3.71,-3.47,0,*52
1505772186.13,21240,14.19,73692.8,-2.97,-3.71,-3.47,0,*5C
1505772187.4,21241,14.19,73692.0,-2.97,-3.71,-3.47,0,*5D
1505772188.65,21242,14.19,73694.5,-2.97,-3.59,-3.39,0,*5D
1505772189.91,21243,14.19,73694.3,-2.97,-3.63,-3.47,0,*5C
1505772191.16,21244,14.19,73688.8,-2.97,-3.63,-3.39,0,*52
1505772192.41,21245,14.19,73692.5,-2.97,-3.59,-3.35,0,*56
1505772193.63,21246,14.25,73692.0,-2.95,-3.55,-3.31,0,*5F
1505772194.84,21247,14.25,73692.0,-2.95,-3.47,-3.23,0,*5E
1505772196.06,21248,14.25,73694.0,-2.95,-3.43,-3.31,0,*56
1505772197.26,21249,14.19,73692.5,-2.91,-3.35,-3.23,0,*51
1505772198.45,21250,14.19,73688.3,-2.95,-3.35,-3.23,0,*5D
1505772199.65,21251,14.19,73688.8,-2.91,-3.35,-3.31,0,*5B
1505772200.85,21252,14.19,73688.8,-2.91,-3.31,-3.23,0,*5F
1505772202.05,21253,14.19,73692.3,-2.91,-3.35,-3.23,0,*5A
1505772203.24,21254,14.19,73688.0,-2.91,-3.35,-3.23,0,*5D
1505772204.44,21255,14.25,73692.8,-2.91,-3.35,-3.23,0,*5C
1505772205.64,21256,14.19,73688.8,-2.95,-3.31,-3.19,0,*56
1505772206.83,21257,14.19,73690.5,-2.91,-3.23,-3.23,0,*59
1505772208.03,21258,14.19,73690.5,-2.87,-3.27,-3.27,0,*51
1505772209.25,21259,14.19,73688.8,-2.89,-3.27,-3.31,0,*59
1505772210.48,21260,14.19,73690.0,-2.89,-3.31,-3.39,0,*5C
1505772211.7,21261,14.25,73694.8,-2.89,-3.27,-3.31,0,*52
1505772212.94,21262,14.25,73692.3,-2.89,-3.31,-3.43,0,*53
1505772214.18,21263,14.25,73692.5,-2.87,-3.43,-3.55,0,*5E
1505772215.42,21264,14.19,73694.3,-2.87,-3.55,-3.67,0,*5F
1505772216.67,21265,14.19,73690.5,-2.85,-3.67,-3.75,0,*5E
1505772217.88,21266,14.19,73690.5,-2.87,-3.83,-3.91,0,*5F
1505772219.08,21267,14.19,73692.3,-2.87,-4.05,-4.05,0,*5D
1505772220.28,21268,14.19,73694.3,-2.87,-4.17,-4.29,0,*5F
1505772221.51,21269,14.19,73692.5,-2.85,-4.29,-4.37,0,*5E
1505772222.71,21270,14.19,73692.5,-2.87,-4.41,-4.53,0,*58
1505772223.93,21271,14.25,73692.8,-2.85,-4.49,-4.53,0,*53
1505772225.16,21272,14.19,73688.8,-2.85,-4.57,-4.65,0,*5A
1505772226.43,21273,14.19,73694.5,-2.85,-4.77,-4.81,0,*53
1505772227.7,21274,14.19,73694.5,-2.85,-4.81,-4.89,0,*55
1505772228.98,21275,14.19,73692.3,-2.85,-4.81,-4.89,0,*54
1505772230.24,21276,14.19,73688.5,-2.85,-4.93,-4.81,0,*5C
1505772231.51,21277,14.19,73692.5,-2.85,-4.81,-4.81,0,*5E
1505772232.78,21278,14.19,73692.5,-2.85,-4.77,-4.69,0,*5E
1505772234.03,21279,14.19,73692.5,-2.85,-4.77,-4.57,0,*52
1505772235.22,21280,14.19,73696.0,-2.83,-4.65,-4.53,0,*55
1505772236.47,21281,14.19,73694.3,-2.85,-4.69,-4.53,0,*5E
1505772237.72,21282,14.19,73694.0,-2.85,-4.69,-4.57,0,*59
1505772238.96,21283,14.19,73694.0,-2.85,-4.69,-4.57,0,*58
1505772240.23,21284,14.19,73694.5,-2.85,-4.77,-4.69,0,*5D
1505772241.5,21285,14.19,73692.0,-2.85,-4.89,-4.77,0,*52
1505772242.77,21286,14.19,73692.8,-2.85,-4.93,-4.89,0,*5B
1505772244.05,21287,14.19,73694.0,-2.85,-5.07,-4.93,0,*5D
1505772245.29,21288,14.19,73694.8,-2.83,-5.19,-4.93,0,*5B
1505772246.57,21289,14.19,73696.0,-2.85,-5.19,-5.07,0,*50
1505772247.86,21290,14.19,73694.3,-2.85,-5.31,-5.19,0,*5D
1505772249.07,21291,14.19,73692.0,-2.83,-5.43,-5.19,0,*5F
1505772250.29,21292,14.19,73694.8,-2.83,-5.81,-5.43,0,*5D
1505772251.56,21293,14.19,73692.5,-2.85,-5.93,-5.55,0,*5E
1505772252.78,21294,14.19,73692.0,-2.85,-5.97,-5.47,0,*5E
1505772254.03,21295,14.19,73694.5,-2.85,-6.05,-5.61,0,*53
1505772255.26,21296,14.19,73688.5,-2.87,-6.01,-5.65,0,*52
1505772256.49,21297,14.19,73690.8,-2.87,-5.97,-5.61,0,*5B
1505772257.72,21298,14.19,73690.8,-2.87,-5.85,-5.39,0,*5A
1505772258.94,21299,14.19,73692.0,-2.87,-5.65,-5.39,0,*55
1505772260.17,21300,14.19,73690.8,-2.87,-5.51,-5.31,0,*5B
1505772261.4,21301,14.19,73690.8,-2.87,-5.35,-5.11,0,*5A
1505772262.65,21302,14.19,73688.3,-2.87,-5.19,-4.93,0,*5C
1505772263.89,21303,14.19,73688.3,-2.87,-4.93,-4.69,0,*5B
1505772265.09,21304,14.19,73690.0,-2.87,-4.61,-4.57,0,*5C
1505772266.3,21305,14.19,73688.8,-2.89,-4.45,-4.45,0,*56
1505772267.53,21306,14.19,73690.5,-2.89,-4.29,-4.21,0,*5D
1505772268.75,21307,14.19,73690.8,-2.89,-4.17,-4.05,0,*57
1505772269.95,21308,14.19,73690.5,-2.87,-4.09,-3.91,0,*53
1505772271.15,21309,14.19,73690.3,-2.87,-3.95,-3.83,0,*53
1505772272.38,21310,14.19,73688.3,-2.85,-3.79,-3.75,0,*52
1505772273.65,21311,14.19,73690.0,-2.85,-3.67,-3.67,0,*5F
1505772274.92,21312,14.19,73688.3,-2.85,-3.67,-3.59,0,*51
1505772276.2,21313,14.19,73690.8,-2.85,-3.67,-3.59,0,*50
1505772277.47,21314,14.19,73688.8,-2.85,-3.59,-3.51,0,*52
1505772278.74,21315,14.19,73688.0,-2.85,-3.63,-3.51,0,*5A
1505772280.01,21316,14.25,73694.3,-2.85,-3.59,-3.51,0,*50
1505772281.28,21317,14.19,73690.0,-2.85,-3.59,-3.47,0,*56
1505772282.5,21318,14.19,73688.8,-2.83,-3.51,-3.39,0,*5E
1505772283.77,21319,14.19,73690.8,-2.85,-3.51,-3.47,0,*50
1505772285.04,21320,14.19,73688.5,-2.85,-3.47,-3.47,0,*5D
1505772286.24,21321,14.19,73688.5,-2.83,-3.39,-3.35,0,*56
1505772287.44,21322,14.19,73688.5,-2.83,-3.35,-3.35,0,*59
1505772288.64,21323,14.25,73690.8,-2.83,-3.39,-3.27,0,*57
1505772289.83,21324,14.19,73690.3,-2.83,-3.39,-3.39,0,*5F
1505772291.05,21325,14.19,73686.8,-2.83,-3.47,-3.35,0,*5B
1505772292.27,21326,14.19,73690.8,-2.81,-3.35,-3.31,0,*5B
1505772293.49,21327,14.19,73686.8,-2.83,-3.51,-3.39,0,*52
1505772294.71,21328,14.19,73690.8,-2.81,-3.35,-3.35,0,*51
1505772295.95,21329,14.25,73690.5,-2.81,-3.47,-3.35,0,*55
1505772297.2,21330,14.19,73686.3,-2.81,-3.35,-3.43,0,*59
1505772298.44,21331,14.19,73690.3,-2.81,-3.43,-3.35,0,*58
1505772299.66,21332,14.19,73688.5,-2.79,-3.43,-3.31,0,*58
1505772300.92,21333,14.19,73686.3,-2.81,-3.59,-3.47,0,*54
1505772302.19,21334,14.19,73686.5,-2.81,-3.59,-3.43,0,*57
1505772303.45,21335,14.19,73686.5,-2.81,-3.59,-3.47,0,*52
1505772304.69,21336,14.19,73686.8,-2.79,-3.55,-3.43,0,*5E
1505772305.95,21337,14.19,73688.5,-2.81,-3.55,-3.47,0,*5C
1505772307.22,21338,14.19,73690.0,-2.81,-3.59,-3.43,0,*5B
1505772308.48,21339,14.19,73688.5,-2.81,-3.55,-3.47,0,*52
1505772309.72,21340,14.19,73686.5,-2.79,-3.51,-3.43,0,*5B
1505772310.96,21341,14.19,73684.8,-2.79,-3.55,-3.43,0,*5E
1505772312.19,21342,14.19,73686.8,-2.79,-3.55,-3.39,0,*50
1505772313.43,21343,14.19,73684.8,-2.79,-3.55,-3.43,0,*5C
1505772314.67,21344,14.19,73684.0,-2.79,-3.55,-3.43,0,*5B
1505772315.91,21345,14.19,73686.8,-2.79,-3.51,-3.43,0,*5E
1505772317.14,21346,14.19,73684.8,-2.79,-3.55,-3.39,0,*54
1505772318.38,21347,14.19,73684.0,-2.79,-3.51,-3.43,0,*5C
1505772319.62,21348,14.19,73684.0,-2.79,-3.55,-3.43,0,*57
1505772320.86,21349,14.19,73682.8,-2.79,-3.55,-3.51,0,*55
1505772322.11,21350,14.19,73680.8,-2.79,-3.55,-3.51,0,*5D
1505772323.37,21351,14.19,73682.5,-2.77,-3.55,-3.51,0,*52
1505772324.64,21352,14.19,73684.0,-2.77,-3.55,-3.51,0,*51
1505772325.9,21353,14.25,73684.0,-2.77,-3.55,-3.55,0,*54
1505772327.17,21354,14.19,73680.8,-2.77,-3.51,-3.51,0,*53
1505772328.43,21355,14.19,73686.0,-2.77,-3.55,-3.55,0,*52
1505772329.7,21356,14.19,73682.3,-2.75,-3.51,-3.51,0,*53
1505772330.97,21357,14.19,73678.5,-2.75,-3.51,-3.51,0,*52
1505772332.23,21358,14.25,73684.0,-2.77,-3.55,-3.55,0,*5F
1505772333.5,21359,14.19,73682.5,-2.77,-3.55,-3.59,0,*52
1505772334.77,21360,14.19,73682.8,-2.75,-3.51,-3.55,0,*52
1505772336.04,21361,14.19,73680.8,-2.77,-3.55,-3.67,0,*54
1505772337.3,21362,14.19,73684.5,-2.75,-3.55,-3.55,0,*54
1505772338.58,21363,14.19,73680.5,-2.75,-3.51,-3.59,0,*5D
1505772339.85,21364,14.19,73684.5,-2.77,-3.55,-3.59,0,*5C
1505772341.12,21365,14.19,73682.8,-2.75,-3.47,-3.51,0,*54
1505772342.39,21366,14.19,73682.8,-2.75,-3.47,-3.47,0,*50
1505772343.66,21367,14.19,73680.8,-2.75,-3.51,-3.55,0,*55
1505772344.92,21368,14.19,73680.8,-2.77,-3.55,-3.67,0,*5D
1505772346.19,21369,14.19,73680.5,-2.75,-3.51,-3.55,0,*5B
1505772347.46,21370,14.19,73682.8,-2.75,-3.51,-3.55,0,*53
1505772348.73,21371,14.19,73678.8,-2.75,-3.51,-3.55,0,*52
1505772350.0,21372,14.19,73680.3,-2.75,-3.51,-3.55,0,*51
1505772351.27,21373,14.19,73680.0,-2.75,-3.51,-3.55,0,*50
1505772352.54,21374,14.19,73678.5,-2.75,-3.51,-3.55,0,*57
1505772353.81,21375,14.19,73678.8,-2.75,-3.51,-3.55,0,*56
1505772355.09,21376,14.19,73680.0,-2.75,-3.51,-3.63,0,*50
1505772356.36,21377,14.19,73676.0,-2.75,-3.51,-3.63,0,*51
1505772357.63,21378,14.19,73676.0,-2.75,-3.51,-3.63,0,*5E
1505772358.87,21379,14.19,73678.0,-2.73,-3.47,-3.55,0,*5B
1505772360.11,21380,14.19,73676.3,-2.73,-3.47,-3.55,0,*5D
1505772361.35,21381,14.19,73680.3,-2.73,-3.47,-3.47,0,*5F
1505772362.59,21382,14.19,73676.8,-2.73,-3.47,-3.47,0,*5C
1505772363.79,21383,14.19,73676.0,-2.69,-3.35,-3.35,0,*56
1505772364.99,21384,14.19,73676.3,-2.73,-3.39,-3.39,0,*5A
1505772366.19,21385,14.19,73676.8,-2.73,-3.35,-3.35,0,*5B
1505772367.39,21386,14.19,73680.3,-2.73,-3.27,-3.27,0,*58
1505772368.59,21387,14.19,73678.3,-2.69,-3.23,-3.31,0,*51
1505772369.79,21388,14.19,73682.8,-2.69,-3.31,-3.35,0,*59
1505772370.99,21389,14.19,73678.8,-2.73,-3.39,-3.39,0,*57
1505772372.19,21390,14.19,73680.5,-2.69,-3.39,-3.39,0,*54
1505772373.41,21391,14.19,73680.5,-2.73,-3.39,-3.47,0,*57
1505772374.64,21392,14.19,73678.8,-2.69,-3.35,-3.43,0,*57
1505772375.88,21393,14.19,73682.3,-2.69,-3.43,-3.43,0,*57
1505772377.13,21394,14.19,73682.3,-2.69,-3.47,-3.51,0,*57
1505772378.38,21395,14.19,73682.8,-2.69,-3.59,-3.71,0,*5B
1505772379.63,21396,14.19,73680.0,-2.69,-3.71,-3.71,0,*52
1505772380.83,21397,14.25,73684.0,-2.69,-3.83,-3.95,0,*54
1505772382.06,21398,14.19,73680.8,-2.69,-3.87,-4.01,0,*55
1505772383.27,21399,14.19,73680.5,-2.69,-4.09,-4.21,0,*57
1505772384.5,21400,14.25,73684.8,-2.67,-4.13,-4.21,0,*55
1505772385.73,21401,14.19,73680.0,-2.67,-4.21,-4.49,0,*5B
1505772386.94,21402,14.19,73682.0,-2.69,-4.33,-4.53,0,*5E
1505772388.14,21403,14.19,73680.5,-2.69,-4.37,-4.65,0,*5E
1505772389.37,21404,14.19,73680.0,-2.69,-4.41,-4.77,0,*5B
1505772390.59,21405,14.19,73684.5,-2.69,-4.49,-4.73,0,*56
1505772391.81,21406,14.19,73680.8,-2.69,-4.53,-4.73,0,*5E
1505772393.01,21407,14.19,73682.0,-2.69,-4.53,-4.65,0,*58
1505772394.24,21408,14.19,73676.5,-2.67,-4.65,-4.65,0,*5C
1505772395.44,21409,14.19,73682.0,-2.73,-4.65,-4.65,0,*58
1505772396.64,21410,14.19,73680.5,-2.69,-4.61,-4.61,0,*5B
1505772397.83,21411,14.19,73678.8,-2.73,-4.53,-4.45,0,*56
1505772399.03,21412,14.19,73680.0,-2.69,-4.49,-4.37,0,*50
1505772400.23,21413,14.19,73682.3,-2.69,-4.45,-4.41,0,*5C
1505772401.42,21414,14.19,73680.3,-2.69,-4.45,-4.45,0,*5F
1505772402.62,21415,14.19,73676.0,-2.69,-4.53,-4.61,0,*5F
1505772403.82,21416,14.19,73680.0,-2.69,-4.61,-4.65,0,*59
1505772405.07,21417,14.19,73682.3,-2.73,-4.77,-5.03,0,*55
1505772406.29,21418,14.19,73680.5,-2.69,-4.99,-5.11,0,*52
1505772407.55,21419,14.25,73686.3,-2.69,-5.03,-5.19,0,*59
1505772408.78,21420,14.19,73680.5,-2.69,-5.27,-5.43,0,*5A
1505772410.01,21421,14.19,73680.3,-2.69,-5.31,-5.43,0,*5C
1505772411.23,21422,14.19,73682.0,-2.73,-5.35,-5.61,0,*50
1505772412.46,21423,14.19,73686.3,-2.69,-5.51,-5.65,0,*5C
1505772413.7,21424,14.19,73682.8,-2.69,-5.51,-5.89,0,*59
1505772414.93,21425,14.19,73682.3,-2.69,-5.77,-6.35,0,*58
1505772416.16,21426,14.19,73680.5,-2.73,-5.85,-6.59,0,*57
1505772417.38,21427,14.19,73680.8,-2.73,-5.85,-6.47,0,*59
1505772418.58,21428,14.19,73680.8,-2.73,-6.05,-6.73,0,*5A
1505772419.8,21429,14.19,73682.0,-2.73,-6.23,-6.85,0,*56
1505772421.03,21430,14.19,73680.3,-2.75,-6.51,-6.89,0,*51
1505772422.28,21431,14.19,73680.0,-2.75,-6.59,-6.93,0,*53
1505772423.51,21432,14.19,73680.8,-2.75,-6.89,-7.19,0,*5E
1505772424.76,21433,14.19,73680.0,-2.77,-7.19,-7.35,0,*5B
1505772426.03,21434,14.19,73680.3,-2.75,-7.39,-7.43,0,*5D
1505772427.3,21435,14.19,73680.0,-2.77,-7.35,-7.57,0,*57
1505772428.53,21436,14.19,73680.5,-2.77,-7.19,-7.23,0,*59
1505772429.77,21437,14.19,73682.3,-2.77,-6.89,-7.05,0,*54
1505772430.98,21438,14.19,73682.3,-2.79,-6.63,-6.69,0,*5A
1505772432.18,21439,14.19,73680.0,-2.79,-6.51,-6.69,0,*5A
1505772433.39,21440,14.19,73682.0,-2.79,-6.51,-6.77,0,*5B
1505772434.58,21441,14.19,73680.3,-2.79,-6.51,-6.69,0,*55
1505772435.81,21442,14.19,73682.8,-2.79,-6.39,-6.63,0,*52
1505772437.04,21443,14.19,73682.3,-2.79,-6.09,-6.19,0,*5D
1505772438.25,21444,14.19,73682.0,-2.81,-6.05,-6.05,0,*5C
1505772439.5,21445,14.19,73682.5,-2.79,-5.89,-5.85,0,*56
1505772440.77,21446,14.19,73680.8,-2.81,-5.81,-5.69,0,*58
1505772442.02,21447,14.19,73680.0,-2.81,-5.77,-5.47,0,*5C
1505772443.24,21448,14.19,73680.8,-2.81,-5.55,-5.39,0,*5A
1505772444.47,21449,14.19,73684.5,-2.79,-5.51,-5.23,0,*53
1505772445.7,21450,14.19,73680.0,-2.79,-5.39,-5.19,0,*5C
1505772446.94,21451,14.19,73684.0,-2.81,-5.65,-5.39,0,*51
1505772448.19,21452,14.19,73680.8,-2.81,-5.69,-5.39,0,*5E
1505772449.46,21453,14.19,73680.8,-2.81,-5.65,-5.19,0,*51
1505772450.69,21454,14.19,73686.0,-2.79,-5.47,-5.19,0,*51
1505772451.91,21455,14.19,73682.8,-2.79,-5.27,-4.99,0,*5F
1505772453.16,21456,14.19,73682.3,-2.79,-5.19,-4.85,0,*5C
1505772454.41,21457,14.19,73686.0,-2.79,-5.19,-4.73,0,*54
1505772455.66,21458,14.19,73680.0,-2.79,-5.11,-4.69,0,*58
1505772456.87,21459,14.19,73680.5,-2.79,-4.93,-4.57,0,*5F
1505772458.12,21460,14.19,73680.8,-2.77,-4.81,-4.57,0,*58
1505772459.36,21461,14.19,73680.8,-2.77,-4.73,-4.57,0,*54
1505772460.56,21462,14.19,73680.5,-2.79,-4.61,-4.45,0,*59
1505772461.77,21463,14.19,73680.8,-2.79,-4.69,-4.49,0,*5C
1505772462.98,21464,14.19,73682.8,-2.79,-4.69,-4.45,0,*57
1505772464.2,21465,14.19,73680.5,-2.79,-4.73,-4.49,0,*51
1505772465.42,21466,14.19,73680.8,-2.79,-4.81,-4.57,0,*50
1505772466.64,21467,14.19,73682.3,-2.79,-4.81,-4.49,0,*5E
1505772467.86,21468,14.19,73680.5,-2.79,-4.81,-4.57,0,*5E
1505772469.1,21469,14.19,73682.3,-2.79,-4.85,-4.73,0,*5D
1505772470.38,21470,14.19,73682.3,-2.75,-5.03,-4.93,0,*58
1505772471.66,21471,14.19,73684.3,-2.77,-5.23,-5.23,0,*53
1505772472.86,21472,14.19,73682.8,-2.79,-5.35,-5.47,0,*5B
1505772474.11,21473,14.19,73682.5,-2.77,-5.47,-5.65,0,*51
1505772475.35,21474,14.19,73680.8,-2.79,-5.73,-5.85,0,*51
1505772476.6,21475,14.19,73680.3,-2.77,-5.85,-5.97,0,*54
1505772477.87,21476,14.19,73682.8,-2.77,-5.89,-6.27,0,*53
1505772479.1,21477,14.19,73678.3,-2.77,-6.09,-6.51,0,*58
1505772480.32,21478,14.19,73682.3,-2.81,-6.43,-6.81,0,*5D
1505772481.52,21479,14.19,73682.0,-2.79,-6.39,-6.69,0,*50
1505772482.73,21480,14.19,73680.8,-2.81,-6.47,-6.85,0,*5A
1505772483.96,21481,14.19,73682.5,-2.79,-6.51,-6.93,0,*5C
1505772485.18,21482,14.19,73682.8,-2.79,-6.55,-6.97,0,*5F
1505772486.4,21483,14.19,73684.3,-2.81,-6.73,-7.15,0,*56
1505772487.62,21484,14.19,73684.0,-2.81,-6.85,-7.11,0,*5C
1505772488.84,21485,14.19,73680.0,-2.81,-6.69,-6.81,0,*57
1505772490.06,21486,14.19,73682.0,-2.81,-6.59,-6.47,0,*5D
1505772491.29,21487,14.19,73680.5,-2.81,-6.55,-6.43,0,*54
1505772492.51,21488,14.19,73678.8,-2.81,-6.81,-6.73,0,*51
1505772493.75,21489,14.19,73676.5,-2.81,-7.11,-6.97,0,*52
1505772494.98,21490,14.19,73678.5,-2.81,-7.23,-7.11,0,*54
1505772496.21,21491,14.19,73676.8,-2.83,-7.31,-7.05,0,*51
1505772497.43,21492,14.19,73676.8,-2.83,-7.15,-7.01,0,*50
1505772498.65,21493,14.19,73678.8,-2.83,-7.01,-6.85,0,*59
1505772499.87,21494,14.19,73682.8,-2.83,-6.97,-6.77,0,*5D
1505772501.07,21495,14.19,73682.0,-2.83,-6.77,-6.51,0,*56
1505772502.3,21496,14.19,73682.8,-2.85,-6.73,-6.35,0,*55
1505772503.54,21497,14.19,73680.3,-2.85,-6.73,-6.27,0,*57
1505772504.76,21498,14.19,73682.5,-2.85,-6.39,-5.97,0,*5E
1505772506.04,21499,14.19,73686.3,-2.85,-6.23,-5.85,0,*57
1505772507.29,21500,14.19,73684.5,-2.83,-6.19,-5.73,0,*50
1505772508.54,21501,14.19,73682.5,-2.85,-5.85,-5.47,0,*56
1505772509.8,21502,14.19,73682.0,-2.83,-5.93,-5.61,0,*50
1505772511.05,21503,14.19,73682.8,-2.83,-5.93,-5.69,0,*59